Weather History for Estherville, IA

Change the Weather History Date:

Friday, January 17, 2014

  Actual Average Record
Temperature  
Mean Temperature 11 °F 15 °F  
Max Temperature 20 °F 24 °F 47 °F (1974)
Min Temperature 1 °F 7 °F -26 °F (1977)
Degree Days  
Heating Degree Days 54 50  
Month to date heating degree days 896 845  
Since 1 July heating degree days 4148 3988  
Cooling Degree Days 0 0  
Month to date cooling degree days 0 0  
Year to date cooling degree days 0 0  
Moisture  
Dew Point 2 °F    
Average Humidity 73    
Maximum Humidity 86    
Minimum Humidity 59    
Precipitation  
Precipitation 0.00 in 0.02 in 0.17 in (1999)
Month to date precipitation 0.04 0.17  
Sea Level Pressure  
Sea Level Pressure 30.04 in    
Wind  
Wind Speed 15 mph (WNW)    
Max Wind Speed 30 mph    
Max Gust Speed 40 mph    
Visibility 10 miles    
Events      
T = Trace of Precipitation, MM = Missing Value Source: NWS Daily Summary

Daily Weather History Graph

Daily Weather History Graph

Search for Another Location

Airport:

Trip Planner

Search our weather history database for the weather conditions in past years. The results will help you decide how hot, cold, wet, or windy it might be!

Date:

Astronomy

Jan. 17, 2014 Rise Set
Actual Time 7:47 AM CST 5:11 PM CST
Civil Twilight 7:16 AM CST 5:42 PM CST
Nautical Twilight 6:40 AM CST 6:17 PM CST
Astronomical Twilight 6:06 AM CST 6:51 PM CST
Moon 7:02 PM CST (1/17) 8:11 AM CST (1/17)
Length of Visible Light 10h 26m
Length of Day
9h 23m
Full, 98% of the Moon is Illuminated
Jan 17
Full
Jan 23
Last Quarter
Jan 30
New
Feb 6
First Quarter
Feb 14
Full

Hourly Weather History & Observations

Time (CST) Temp. Windchill Dew Point Humidity Pressure Visibility Wind Dir Wind Speed Gust Speed Precip Events Conditions
12:14 AM 5.0 °F -17.9 °F -0.0 °F 80% 29.94 in 7.0 mi NNW 26.5 mph 36.8 mph N/A   Overcast
12:50 AM 3.2 °F -18.6 °F -0.4 °F 85% 29.94 in 10.0 mi NNW 21.9 mph 34.5 mph N/A   Overcast
12:52 AM 3.9 °F -20.1 °F -0.9 °F 80% 30.01 in 10.0 mi NNW 28.8 mph 34.5 mph N/A   Overcast
1:52 AM 3.9 °F -19.4 °F -2.0 °F 76% 30.03 in 10.0 mi NNW 26.5 mph 36.8 mph N/A   Overcast
2:52 AM 1.9 °F -20.2 °F -4.0 °F 76% 30.06 in 10.0 mi NNW 21.9 mph 29.9 mph N/A   Clear
3:52 AM 1.9 °F -18.7 °F -4.0 °F 76% 30.07 in 10.0 mi NNW 18.4 mph - N/A   Partly Cloudy
4:52 AM 1.9 °F -20.2 °F -5.1 °F 72% 30.07 in 10.0 mi NNW 21.9 mph 31.1 mph N/A   Clear
5:52 AM 1.0 °F -21.4 °F -5.1 °F 75% 30.09 in 10.0 mi NNW 21.9 mph - N/A   Clear
6:52 AM 1.0 °F -20.9 °F -5.1 °F 75% 30.10 in 10.0 mi NNW 20.7 mph - N/A   Clear
7:52 AM 1.0 °F -20.9 °F -5.1 °F 75% 30.12 in 10.0 mi NW 20.7 mph - N/A   Clear
8:52 AM 3.0 °F -17.8 °F -2.9 °F 76% 30.12 in 10.0 mi NW 19.6 mph 26.5 mph N/A   Clear
9:52 AM 7.0 °F -12.6 °F -0.9 °F 70% 30.12 in 10.0 mi NNW 19.6 mph - N/A   Clear
10:52 AM 10.0 °F -7.1 °F 1.9 °F 70% 30.14 in 10.0 mi NNW 16.1 mph - N/A   Clear
11:52 AM 12.9 °F -2.8 °F 5.0 °F 71% 30.12 in 10.0 mi NW 15.0 mph - N/A   Clear
12:52 PM 16.0 °F 0.6 °F 7.0 °F 68% 30.11 in 10.0 mi NW 16.1 mph - N/A   Clear
1:52 PM 18.0 °F 4.8 °F 8.1 °F 65% 30.08 in 10.0 mi NNW 12.7 mph - N/A   Clear
2:52 PM 18.0 °F 8.7 °F 8.1 °F 65% 30.08 in 10.0 mi WNW 6.9 mph - N/A   Clear
3:52 PM 19.0 °F 7.5 °F 8.1 °F 62% 30.08 in 10.0 mi West 10.4 mph - N/A   Clear
4:52 PM 18.0 °F 12.7 °F 7.0 °F 62% 30.07 in 10.0 mi SW 3.5 mph - N/A   Clear
5:52 PM 14.0 °F 6.5 °F 3.9 °F 64% 30.06 in 10.0 mi SW 4.6 mph - N/A   Clear
6:52 PM 15.1 °F 7.7 °F 3.9 °F 61% 30.05 in 10.0 mi SW 4.6 mph - N/A   Clear
7:52 PM 16.0 °F 5.3 °F 5.0 °F 62% 30.01 in 10.0 mi South 8.1 mph - N/A   Partly Cloudy
8:52 PM 16.0 °F 5.3 °F 5.0 °F 62% 29.98 in 10.0 mi South 8.1 mph - N/A   Overcast
9:52 PM 16.0 °F 4.4 °F 7.0 °F 68% 29.92 in 10.0 mi South 9.2 mph - N/A   Overcast
10:52 PM 17.1 °F 3.0 °F 6.1 °F 62% 29.86 in 10.0 mi South 13.8 mph - N/A   Overcast
11:52 PM 19.0 °F 5.0 °F 6.1 °F 57% 29.78 in 10.0 mi South 15.0 mph - N/A   Overcast